TimeMST,TemperatureF,Dew PointF,Humidity,Sea Level PressureIn,VisibilityMPH,Wind Direction,Wind SpeedMPH,Gust SpeedMPH,PrecipitationIn,Events,Conditions,WindDirDegrees,DateUTC
12:15 AM,33.8,25.7,72,30.27,10.0,SSW,17.3,29.9,N/A,,Overcast,210,2013-12-24 07:15:00
12:35 AM,33.6,26.2,74,30.27,10.0,SSW,19.6,28.8,N/A,,Overcast,210,2013-12-24 07:35:00
12:55 AM,33.8,26.4,74,30.26,10.0,SSW,19.6,27.6,N/A,,Overcast,210,2013-12-24 07:55:00
1:15 AM,34.3,25.9,71,30.25,10.0,SSW,16.1,24.2,N/A,,Overcast,210,2013-12-24 08:15:00
1:35 AM,34.3,25.9,71,30.25,10.0,SW,15.0,26.5,N/A,,Overcast,220,2013-12-24 08:35:00
1:55 AM,34.3,25.2,69,30.24,10.0,SW,12.7,23.0,N/A,,Overcast,220,2013-12-24 08:55:00
2:15 AM,34.3,25.0,69,30.24,10.0,SSW,12.7,23.0,N/A,,Overcast,210,2013-12-24 09:15:00
2:35 AM,34.3,25.2,69,30.23,10.0,SSW,18.4,28.8,N/A,,Overcast,210,2013-12-24 09:35:00
2:55 AM,34.0,24.8,69,30.22,10.0,SW,18.4,26.5,N/A,,Overcast,220,2013-12-24 09:55:00
3:15 AM,34.3,25.0,69,30.22,10.0,SW,13.8,26.5,N/A,,Overcast,220,2013-12-24 10:15:00
3:35 AM,34.2,25.3,70,30.21,10.0,SSW,15.0,20.7,N/A,,Overcast,210,2013-12-24 10:35:00
3:55 AM,34.2,25.3,70,30.21,10.0,SW,11.5,23.0,N/A,,Overcast,220,2013-12-24 10:55:00
4:15 AM,34.3,24.8,68,30.20,10.0,SW,11.5,19.6,N/A,,Overcast,230,2013-12-24 11:15:00
4:35 AM,34.7,25.0,68,30.19,10.0,SW,12.7,19.6,N/A,,Overcast,220,2013-12-24 11:35:00
4:55 AM,34.5,25.2,69,30.18,10.0,SSW,13.8,20.7,N/A,,Overcast,210,2013-12-24 11:55:00
5:15 AM,34.3,25.2,69,30.17,10.0,SSW,18.4,23.0,N/A,Snow,Light Snow,210,2013-12-24 12:15:00
5:35 AM,34.0,25.9,72,30.18,5.0,SW,20.7,26.5,N/A,Snow,Light Snow,220,2013-12-24 12:35:00
5:55 AM,32.9,26.8,78,30.18,2.5,SSW,17.3,24.2,N/A,Snow,Light Snow,210,2013-12-24 12:55:00
6:15 AM,32.9,26.6,78,30.18,10.0,SSW,15.0,23.0,N/A,Snow,Light Snow,210,2013-12-24 13:15:00
6:35 AM,33.3,25.3,73,30.16,10.0,SSW,16.1,23.0,N/A,Snow,Light Snow,200,2013-12-24 13:35:00
6:55 AM,33.3,24.8,71,30.15,10.0,SSW,13.8,26.5,N/A,,Overcast,210,2013-12-24 13:55:00
7:15 AM,33.1,25.0,72,30.14,10.0,SSW,17.3,26.5,N/A,,Overcast,210,2013-12-24 14:15:00
7:35 AM,33.3,25.2,72,30.14,7.0,SW,19.6,26.5,N/A,Snow,Light Snow,220,2013-12-24 14:35:00
7:55 AM,32.9,25.5,74,30.15,5.0,SW,16.1,28.8,N/A,Snow,Light Snow,230,2013-12-24 14:55:00
8:15 AM,32.4,25.5,76,30.16,5.0,WSW,17.3,24.2,N/A,Snow,Light Snow,240,2013-12-24 15:15:00
8:35 AM,32.0,26.2,79,30.18,2.5,West,11.5,20.7,N/A,Snow,Light Snow,260,2013-12-24 15:35:00
8:55 AM,31.8,27.5,84,30.21,2.5,West,15.0,-,N/A,Snow,Light Snow,270,2013-12-24 15:55:00
9:15 AM,31.5,28.0,87,30.22,1.5,West,13.8,20.7,N/A,Snow,Light Snow,260,2013-12-24 16:15:00
9:35 AM,31.8,26.4,80,30.24,10.0,West,19.6,27.6,N/A,,Overcast,270,2013-12-24 16:35:00
9:55 AM,31.8,20.5,63,30.25,4.0,West,23.0,27.6,N/A,,Haze,280,2013-12-24 16:55:00
10:15 AM,30.9,20.5,65,30.26,1.8,West,23.0,33.4,N/A,,Haze,280,2013-12-24 17:15:00
10:35 AM,30.4,20.3,66,30.26,5.0,West,20.7,27.6,N/A,,Haze,270,2013-12-24 17:35:00
10:55 AM,31.1,20.7,65,30.26,2.5,WNW,20.7,33.4,N/A,,Haze,290,2013-12-24 17:55:00
11:15 AM,31.5,20.7,64,30.26,5.0,West,20.7,27.6,N/A,,Haze,270,2013-12-24 18:15:00
11:35 AM,31.6,19.8,62,30.26,10.0,West,15.0,18.4,N/A,,Overcast,280,2013-12-24 18:35:00
11:55 AM,32.0,19.8,61,30.25,10.0,West,18.4,23.0,N/A,,Overcast,280,2013-12-24 18:55:00
12:15 PM,32.7,19.2,58,30.25,10.0,WNW,18.4,21.9,N/A,,Scattered Clouds,300,2013-12-24 19:15:00
12:35 PM,31.5,19.2,61,30.27,10.0,NW,17.3,26.5,N/A,,Mostly Cloudy,310,2013-12-24 19:35:00
12:55 PM,30.2,19.0,63,30.28,10.0,NW,18.4,27.6,N/A,,Overcast,310,2013-12-24 19:55:00
1:15 PM,29.3,16.3,58,30.29,7.0,NW,20.7,-,N/A,,Overcast,310,2013-12-24 20:15:00
1:35 PM,29.7,16.0,57,30.29,10.0,WNW,15.0,20.7,N/A,,Scattered Clouds,300,2013-12-24 20:35:00
1:55 PM,32.2,16.0,51,30.29,10.0,NW,20.7,27.6,N/A,,Mostly Cloudy,320,2013-12-24 20:55:00
2:15 PM,30.6,14.2,51,30.30,10.0,WNW,17.3,-,N/A,,Scattered Clouds,300,2013-12-24 21:15:00
2:35 PM,30.9,13.8,49,30.30,10.0,NW,17.3,-,N/A,,Clear,310,2013-12-24 21:35:00
2:55 PM,30.2,13.3,49,30.31,10.0,NW,17.3,-,N/A,,Clear,310,2013-12-24 21:55:00
3:15 PM,30.4,14.0,51,30.32,10.0,NW,15.0,-,N/A,,Clear,310,2013-12-24 22:15:00
3:35 PM,28.6,13.8,54,30.32,10.0,WNW,12.7,-,N/A,,Scattered Clouds,300,2013-12-24 22:35:00
3:55 PM,27.3,14.0,57,30.33,10.0,WNW,9.2,-,N/A,,Mostly Cloudy,300,2013-12-24 22:55:00
4:15 PM,24.4,12.9,62,30.34,10.0,NW,8.1,-,N/A,,Scattered Clouds,310,2013-12-24 23:15:00
4:35 PM,19.0,10.6,70,30.34,10.0,NNW,6.9,-,N/A,,Clear,340,2013-12-24 23:35:00
4:55 PM,21.2,11.8,67,30.35,10.0,West,3.5,-,N/A,,Clear,270,2013-12-24 23:55:00
5:15 PM,18.5,10.0,70,30.36,10.0,Calm,Calm,-,N/A,,Clear,0,2013-12-25 00:15:00
5:35 PM,12.7,6.3,75,30.37,10.0,NE,3.5,-,N/A,,Clear,40,2013-12-25 00:35:00
5:55 PM,8.6,3.4,79,30.37,10.0,NE,8.1,-,N/A,,Clear,50,2013-12-25 00:55:00
6:15 PM,9.5,4.8,81,30.37,10.0,Calm,Calm,-,N/A,,Clear,0,2013-12-25 01:15:00
6:35 PM,9.9,5.4,82,30.37,10.0,Calm,Calm,-,N/A,,Clear,0,2013-12-25 01:35:00
6:55 PM,8.1,3.4,81,30.39,10.0,Calm,Calm,-,N/A,,Clear,0,2013-12-25 01:55:00
7:15 PM,7.7,3.2,82,30.39,10.0,Calm,Calm,-,N/A,,Clear,0,2013-12-25 02:15:00
7:35 PM,8.1,3.7,83,30.39,10.0,Calm,Calm,-,N/A,,Clear,0,2013-12-25 02:35:00
7:55 PM,6.8,3.0,84,30.40,10.0,Calm,Calm,-,N/A,,Clear,0,2013-12-25 02:55:00
8:15 PM,3.7,-0.4,83,30.40,10.0,ENE,4.6,-,N/A,,Clear,60,2013-12-25 03:15:00
8:35 PM,5.0,1.6,86,30.41,10.0,Calm,Calm,-,N/A,,Clear,0,2013-12-25 03:35:00
8:55 PM,4.6,0.5,83,30.41,10.0,Calm,Calm,-,N/A,,Clear,0,2013-12-25 03:55:00
9:15 PM,6.4,2.5,84,30.41,10.0,Calm,Calm,-,N/A,,Clear,0,2013-12-25 04:15:00
9:35 PM,6.8,3.2,85,30.42,10.0,SE,5.8,-,N/A,,Clear,140,2013-12-25 04:35:00
9:55 PM,5.9,1.8,83,30.42,10.0,Calm,Calm,-,N/A,,Clear,0,2013-12-25 04:55:00
10:15 PM,3.6,0.1,86,30.41,10.0,Calm,Calm,-,N/A,,Clear,0,2013-12-25 05:15:00
10:35 PM,4.8,1.4,86,30.41,10.0,Calm,Calm,-,N/A,,Clear,0,2013-12-25 05:35:00
10:55 PM,3.6,-0.0,85,30.42,10.0,Calm,Calm,-,N/A,,Clear,0,2013-12-25 05:55:00
11:15 PM,5.5,1.4,83,30.42,10.0,SE,3.5,-,N/A,,Clear,140,2013-12-25 06:15:00
11:35 PM,5.4,1.9,86,30.42,10.0,SSE,3.5,-,N/A,,Clear,150,2013-12-25 06:35:00
11:55 PM,5.0,1.0,84,30.44,10.0,Calm,Calm,-,N/A,,Clear,0,2013-12-25 06:55:00